Regional Weather Roundup
Issued by NWS Charleston, SC

Current Version | Previous Version | Graphics & Text | Print | Product List | Glossary On
Versions: 1 2 3 4 5 6 7 8 9 10 11 12 13 14 15 16 17 18 19 20 21 22 23 24 25 26 27 28 29 30 31 32 33 34 35 36 37 38 39 40 41 42 43 44 45 46 47 48 49 50
000
ASUS42 KCHS 281212
RWRCHS
REGIONAL WEATHER ROUNDUP
NATIONAL WEATHER SERVICE CHARLESTON SC
800 AM EDT TUE APR 28 2015

NOTE: "FAIR" INDICATES FEW OR NO CLOUDS BELOW 12,000 FEET WITH NO
SIGNIFICANT WEATHER AND/OR OBSTRUCTIONS TO VISIBILITY.

NOT ALL STATIONS ARE QUALITY CONTROLLED BY THE NATIONAL
WEATHER SERVICE. USE DATA WITH CAUTION...ESPECIALLY
DEWPOINT OBSERVATIONS.

SCZ027-030-031-034>040-042>050-281300-
...SOUTHEAST SOUTH CAROLINA...

CITY           SKY/WX    TMP DP  RH WIND       PRES   REMARKS
N CHARLESTON   CLOUDY    57  38  48 NE9       29.94R
6HR MIN TEMP:  55; 6HR MAX TEMP:  59;

WATERFRONT PRK   N/A     61 N/A N/A NE10G16     N/A
MOUNT PLEASANT FAIR      55  43  62 MISG      29.94R
PINOPOLIS      NOT AVBL
MONCKS CORNER  FAIR      54  43  66 NE5       29.95R
SUMMERVILLE    FAIR      52  45  76 CALM      29.96R
BEAUFORT MCAS  CLOUDY    59  39  47 NE10      29.95R
6HR MIN TEMP:  56; 6HR MAX TEMP:  60;

BEAUFORT ARPT  FAIR      61  43  51 NE13      29.93R
HILTON HEAD IS CLOUDY    63  43  48 NE12      29.94R
WALTERBORO     CLOUDY    54  41  62 E5        29.96R
ALLENDALE      FAIR      55  43  62 CALM      29.95R

...SOUTHERN MIDLANDS AND PEE DEE...

CITY           SKY/WX    TMP DP  RH WIND       PRES   REMARKS
GEORGETOWN     NOT AVBL
KINGSTREE      NOT AVBL
ORANGEBURG     CLOUDY    53  41  63 NE6       29.96R
6HR MIN TEMP:  50; 6HR MAX TEMP:  58;

BARNWELL       FAIR      54  43  66 NE3       29.97R
AIKEN          FAIR      50  39  66 NE3       29.99R
MANNING        FAIR      48  32  53 CALM      29.96R
COLUMBIA       CLOUDY    54  40  59 CALM      29.97R
6HR MIN TEMP:  49; 6HR MAX TEMP:  60;

SUMTER         CLOUDY    51  43  76 NE5       29.96R
6HR MIN TEMP:  47; 6HR MAX TEMP:  53;

FLORENCE       PTSUNNY   51  40  65 N8        29.97R
6HR MIN TEMP:  46; 6HR MAX TEMP:  53;

MYRTLE BEACH   SUNNY     54  37  54 NE9       29.97R
N MYRTLE BEACH MOSUNNY   52  40  63 NE7       29.96R
6HR MIN TEMP:  49; 6HR MAX TEMP:  55;


$$

GAZ063-065-086>088-099>101-113>116-118-119-134>141-150-281300-
...SOUTHEAST GEORGIA...

CITY           SKY/WX    TMP DP  RH WIND       PRES   REMARKS
SAVANNAH ARPT  CLOUDY    58  46  64 NE7       29.93R
6HR MIN TEMP:  56; 6HR MAX TEMP:  63;

HUNTER AAF     CLOUDY    61  48  62 NE8       29.91R
6HR MIN TEMP:  59; 6HR MAX TEMP:  61;

FORT STEWART   NOT AVBL
STATESBORO       N/A     56  45  65 E3        29.95R
SYLVANIA       CLOUDY    55  47  74 E5        29.96R
CLAXTON        PTSUNNY   55  46  71 E7        29.94R

...CSRA...CENTRAL AND FAR SOUTHEAST GEORGIA...

CITY           SKY/WX    TMP DP  RH WIND       PRES   REMARKS
THOMSON        CLOUDY    55  47  74 CALM      30.00R
AUGUSTA-BUSH   CLOUDY    54  43  66 CALM      29.96R
6HR MIN TEMP:  51; 6HR MAX TEMP:  57;

AUGUSTA-DANIEL CLOUDY    57  36  45 E5        29.97R
SWAINSBORO     NOT AVBL
VIDALIA        CLOUDY    59  52  77 E13       29.94R
EASTMAN        FAIR      60  60 100 E9        29.95R
HAZLEHURST     CLOUDY    64  64  97 SE3       29.91R
ALMA           CLOUDY    63  59  87 CALM      29.91R
6HR MIN TEMP:  61; 6HR MAX TEMP:  63;

WAYCROSS       CLOUDY    66  64  93 E5        29.90R
JESUP          CLOUDY    64  61  88 SE7       29.90R
BAXLEY         CLOUDY    64  63  94 CALM      29.90R
BRUNSWICK      CLOUDY    64  54  68 N5        29.92R
SAINT SIMONS   CLOUDY    67  50  54 E9        29.90R
6HR MIN TEMP:  66; 6HR MAX TEMP:  68; 6HR PCP: TRACE;


$$

SCZ027-028-034-036>038-045-046-048>050-GAZ119-141-281300-
...LAKE AND SUPPLEMENTAL COASTAL OBSERVATIONS...

STATION/POSITION TIME  TEMP    WIND        PRES    WAVE   SWELL
                       AIR SEA DIR/SP/G            HT/PER HT/PER/DIR
                 (UTC) (F)     (DEG/KT/KT) (MB)    (FT/S) (FT/S/D)
UPR LAKE MARION  NOT AVBL
WINYAH BAY       NOT AVBL
LAKE MURRAY      1100   53      CALM  /  2 1013.9R
ACE BASIN NERRS  NOT AVBL
FORT PULASKI     1112   64 70   30/ 12/ 16 1013.2R
SAPELO ISLAND    1100   67      80/  4     1011.0S

$$

ANZ835-935-AMZ111-154-330-350-352-354-370-450-454-472-281300-
...C-MAN AND BUOY OBSERVATIONS...

STATION/POSITION TIME  TEMP    WIND        PRES    WAVE   SWELL
                       AIR SEA DIR/SP/G            HT/PER HT/PER/DIR
                 (UTC) (F)     (DEG/KT/KT) (MB)    (FT/S) (FT/S/D)
BUOY 41004       1150   65 72   40/ 17/ 19 1012.1R   6/ 5
BUOY 41008       1150   69 69   70/ 10/ 12 1012.4R   2/ 8   2/ 90/ 8
FOLLY BEACH CMAN 1100   61      30/ 16/ 20 1012.7F
CAPERS NEARSHORE 1108   63      40/ 17/ 23 1012.8F
FRIPP NEARSHORE  1100   65      60/ 21/ 23 1011.8R


STATION/POSITION TIME  TEMP    WIND        PRES    WAVE   SWELL
                       AIR SEA DIR/SP/G            HT/PER HT/PER/DIR
                 (UTC) (F)     (DEG/KT/KT) (MB)    (FT/S) (FT/S/D)
5E ST. MARYS GA  1121      70                N/A     3/ 4
FRYING PAN BUOY  1150   63 71   20/ 16/ 19 1013.7R   4/ 6   2/ 90/ 8
BUOY 41025       1150   56 74  340/ 14/ 19 1012.0R   4/ 4   2/ 70/ 7
CAPE LOOKOUT NC  1100   52     350/ 14/ 15 1012.9R
BUOY 41002       1150   68 70  340/ 14/ 17 1011.0R   4/ 7   3/ 10/ 7
BUOY 41010       1120   74 79   80/  8/ 10 1010.6R
ST AUGUSTINE FL  1200   71 69  100/ 11/ 11 1011.4R


$$



USA.gov is the U.S. government's official web portal to all federal, state and local government web resources and services.